Deville, LA

6:33 AM CDT on September 27, 2016 (GMT -0500)
Alexandria Esler Regional

Weather History for KESF - October, 2013

Change the Weather History Date:

Wednesday, October 23, 2013

  Actual Average Record
Temperature  
Mean Temperature 62 °F -  
Max Temperature 79 °F 78 °F 88 °F (2003)
Min Temperature 44 °F 53 °F 37 °F (1996)
Degree Days  
Heating Degree Days 4    
Growing Degree Days 12 (Base 50)    
Moisture  
Dew Point 47 °F    
Average Humidity 82    
Maximum Humidity 100    
Minimum Humidity 31    
Precipitation  
Precipitation 0.01 in - - ()
Sea Level Pressure  
Sea Level Pressure 30.09 in    
Wind  
Wind Speed 0 mph (NNE)    
Max Wind Speed 7 mph    
Max Gust Speed -    
Visibility 5 miles    
Events Fog    
Averages and records for this station are not official NWS values.
T = Trace of Precipitation, MM = Missing Value Source: NWS Daily Summary

Daily Weather History Graph

Daily Weather History Graph

Search for Another Location

Airport or City:

Trip Planner

Search our weather history database for the weather conditions in past years. The results will help you decide how hot, cold, wet, or windy it might be!

Date:

Astronomy

Oct. 23, 2013 Rise Set
Actual Time 7:18 AM CDT 6:28 PM CDT
Civil Twilight 6:53 AM CDT 6:53 PM CDT
Nautical Twilight 6:24 AM CDT 7:21 PM CDT
Astronomical Twilight 5:56 AM CDT 7:49 PM CDT
Moon 10:08 PM CDT (10/23) 11:26 AM CDT (10/23)
Length of Visible Light 11h 59m
Length of Day
11h 10m
Waning Gibbous, 79% of the Moon is Illuminated
Oct 23
Waning Gibbous
Oct 26
Last Quarter
Nov 3
New
Nov 9
First Quarter
Nov 17
Full

Hourly Weather History & Observations

Time (CDT) Temp. Dew Point Humidity Pressure Visibility Wind Dir Wind Speed Gust Speed Precip Events Conditions
12:19 AM 48.2 °F 46.4 °F 93% 30.07 in 2.5 mi Calm Calm - N/A   Clear
12:33 AM 48.2 °F 46.4 °F 93% 30.06 in 1.2 mi Calm Calm - N/A   Clear
12:41 AM 48.2 °F 46.4 °F 93% 30.06 in 3.0 mi Calm Calm - N/A   Clear
12:53 AM 48.9 °F 46.9 °F 93% 30.06 in 1.8 mi Calm Calm - N/A   Clear
1:03 AM 48.2 °F 46.4 °F 93% 30.07 in 3.0 mi Calm Calm - N/A   Clear
1:06 AM 48.2 °F 46.4 °F 93% 30.07 in 1.8 mi Calm Calm - N/A   Clear
1:23 AM 48.2 °F 46.4 °F 93% 30.07 in 3.0 mi Calm Calm - N/A   Clear
1:31 AM 48.2 °F 46.4 °F 93% 30.07 in 2.5 mi Calm Calm - N/A   Clear
1:45 AM 46.4 °F 46.4 °F 100% 30.07 in 0.8 mi Calm Calm - N/A   Clear
1:53 AM 46.9 °F 45.0 °F 93% 30.07 in 0.8 mi Calm Calm - N/A   Mist
2:04 AM 48.2 °F 46.4 °F 93% 30.07 in 0.8 mi Calm Calm - 0.01 in   Clear
2:38 AM 46.4 °F 46.4 °F 100% 30.07 in 1.8 mi Calm Calm - 0.01 in   Clear
2:47 AM 46.4 °F 44.6 °F 93% 30.06 in 3.0 mi Calm Calm - 0.01 in   Clear
2:53 AM 46.9 °F 45.0 °F 93% 30.06 in 3.0 mi Calm Calm - 0.01 in   Clear
2:56 AM 46.4 °F 44.6 °F 93% 30.06 in 1.8 mi Calm Calm - N/A   Clear
3:14 AM 46.4 °F 44.6 °F 93% 30.06 in 3.0 mi Calm Calm - N/A   Clear
3:24 AM 46.4 °F 44.6 °F 93% 30.06 in 1.8 mi Calm Calm - N/A   Clear
3:50 AM 46.4 °F 44.6 °F 93% 30.06 in 3.0 mi Calm Calm - N/A   Clear
3:53 AM 46.0 °F 44.1 °F 93% 30.06 in 4.0 mi Calm Calm - N/A   Clear
4:03 AM 46.4 °F 44.6 °F 93% 30.06 in 1.5 mi Calm Calm - N/A   Clear
4:13 AM 46.4 °F 44.6 °F 93% 30.06 in 0.5 mi Calm Calm - N/A Fog Fog
4:21 AM 46.4 °F 44.6 °F 93% 30.06 in 0.8 mi Calm Calm - N/A   Mist
4:27 AM 44.6 °F 42.8 °F 93% 30.05 in 1.2 mi Calm Calm - N/A   Partly Cloudy
4:32 AM 44.6 °F 42.8 °F 93% 30.05 in 3.0 mi Calm Calm - N/A   Partly Cloudy
4:45 AM 44.6 °F 42.8 °F 93% 30.05 in 1.8 mi Calm Calm - N/A   Clear
4:51 AM 44.6 °F 42.8 °F 93% 30.05 in 3.0 mi Calm Calm - N/A   Clear
4:53 AM 45.0 °F 43.0 °F 93% 30.05 in 3.0 mi Calm Calm - N/A   Clear
5:53 AM 54.0 °F 46.0 °F 75% 30.05 in 10.0 mi NW 4.6 mph - N/A   Clear
6:53 AM 46.0 °F 44.1 °F 93% 30.08 in 10.0 mi Calm Calm - N/A   Clear
7:53 AM 48.0 °F 46.0 °F 93% 30.11 in 9.0 mi Calm Calm - N/A   Clear
8:53 AM 59.0 °F 48.9 °F 69% 30.12 in 10.0 mi North 5.8 mph - N/A   Clear
9:53 AM 63.0 °F 48.9 °F 60% 30.14 in 10.0 mi ENE 4.6 mph - N/A   Clear
10:53 AM 68.0 °F 48.9 °F 50% 30.14 in 10.0 mi NE 6.9 mph - N/A   Clear
11:53 AM 71.1 °F 48.0 °F 44% 30.14 in 10.0 mi Variable 3.5 mph - N/A   Clear
12:53 PM 73.9 °F 48.9 °F 41% 30.12 in 10.0 mi Calm Calm - N/A   Clear
1:53 PM 75.0 °F 46.9 °F 37% 30.10 in 10.0 mi Calm Calm - N/A   Clear
2:53 PM 78.1 °F 46.9 °F 33% 30.08 in 10.0 mi Calm Calm - N/A   Clear
3:53 PM 79.0 °F 46.0 °F 31% 30.09 in 10.0 mi Variable 4.6 mph - N/A   Clear
4:53 PM 78.1 °F 45.0 °F 31% 30.10 in 10.0 mi North 4.6 mph - N/A   Clear
5:53 PM 70.0 °F 53.1 °F 55% 30.10 in 10.0 mi Calm Calm - N/A   Clear
6:53 PM 60.1 °F 53.1 °F 78% 30.11 in 10.0 mi Calm Calm - N/A   Clear
7:53 PM 55.0 °F 52.0 °F 89% 30.12 in 10.0 mi Calm Calm - N/A   Clear
8:53 PM 54.0 °F 51.1 °F 90% 30.13 in 10.0 mi Calm Calm - N/A   Clear
9:53 PM 53.1 °F 50.0 °F 89% 30.14 in 10.0 mi Calm Calm - N/A   Clear
10:09 PM 51.8 °F 48.2 °F 88% 30.14 in 1.8 mi Calm Calm - N/A   Clear
10:14 PM 53.6 °F 50.0 °F 88% 30.14 in 3.0 mi Calm Calm - N/A   Clear
10:23 PM 51.8 °F 48.2 °F 88% 30.14 in 1.8 mi Calm Calm - N/A   Clear
10:46 PM 51.8 °F 48.2 °F 88% 30.15 in 3.0 mi Calm Calm - N/A   Clear
10:53 PM 52.0 °F 48.9 °F 89% 30.14 in 7.0 mi Calm Calm - N/A   Clear
11:46 PM 50.0 °F 48.2 °F 94% 30.14 in 1.8 mi Calm Calm - N/A   Clear
11:53 PM 50.0 °F 46.9 °F 89% 30.13 in 0.8 mi Calm Calm - N/A   Clear